Laramie, WY

2:01 PM MDT on April 24, 2017 (GMT -0600)
Laramie Regional

Weather History for KLAR - December, 2013

Change the Weather History Date:

Monday, December 2, 2013

  Actual Average Record
Temperature  
Mean Temperature 38 °F 22 °F  
Max Temperature 42 °F 34 °F 58 °F (2012)
Min Temperature 34 °F 11 °F -16 °F (2009)
Degree Days  
Heating Degree Days 27 42  
Month to date heating degree days 56 84  
Since 1 July heating degree days 2178 2396  
Cooling Degree Days 0 0  
Month to date cooling degree days 0 0  
Year to date cooling degree days 162 67  
Moisture  
Dew Point 23 °F    
Average Humidity 54    
Maximum Humidity 61    
Minimum Humidity 46    
Precipitation  
Precipitation 0.00 in 0.01 in 0.25 in (1973)
Month to date precipitation 0.00 0.02  
Year to date precipitation 11.66 10.62  
Sea Level Pressure  
Sea Level Pressure 29.66 in    
Wind  
Wind Speed 20 mph (WSW)    
Max Wind Speed 38 mph    
Max Gust Speed 47 mph    
Visibility 10 miles    
Events      
T = Trace of Precipitation, MM = Missing Value Source: NWS Daily Summary

Daily Weather History Graph

Daily Weather History Graph

Search for Another Location

Airport or City:

Trip Planner

Search our weather history database for the weather conditions in past years. The results will help you decide how hot, cold, wet, or windy it might be!

Date:

Astronomy

Dec. 02, 2013 Rise Set
Actual Time 7:10 AM MST 4:33 PM MST
Civil Twilight 6:39 AM MST 5:04 PM MST
Nautical Twilight 6:05 AM MST 5:39 PM MST
Astronomical Twilight 5:31 AM MST 6:12 PM MST
Moon 6:38 AM MST (12/2) 4:39 PM MST (12/2)
Length of Visible Light 10h 25m
Length of Day
9h 23m
Waning Crescent, 0% of the Moon is Illuminated
Dec 2
Waning Crescent
Dec 2
New
Dec 9
First Quarter
Dec 17
Full
Dec 25
Last Quarter

Hourly Weather History & Observations

Time (MST) Temp. Windchill Dew Point Humidity Pressure Visibility Wind Dir Wind Speed Gust Speed Precip Events Conditions
12:53 AM 37.0 °F 23.9 °F 25.0 °F 62% 29.78 in 10.0 mi West 33.4 mph 43.7 mph N/A   Clear
1:53 AM 37.0 °F 25.4 °F 25.0 °F 62% 29.81 in 10.0 mi West 25.3 mph 42.6 mph N/A   Scattered Clouds
2:53 AM 37.9 °F 26.1 °F 25.0 °F 60% 29.81 in 10.0 mi West 27.6 mph 40.3 mph N/A   Overcast
3:53 AM 37.9 °F 26.1 °F 24.1 °F 57% 29.77 in 10.0 mi WSW 27.6 mph 35.7 mph N/A   Mostly Cloudy
4:53 AM 37.9 °F 26.1 °F 24.1 °F 57% 29.76 in 10.0 mi West 27.6 mph 34.5 mph N/A   Overcast
5:53 AM 37.0 °F 26.2 °F 25.0 °F 62% 29.73 in 10.0 mi SW 21.9 mph 28.8 mph N/A   Mostly Cloudy
6:53 AM 37.9 °F 27.1 °F 23.0 °F 55% 29.72 in 10.0 mi WSW 23.0 mph 41.4 mph N/A   Overcast
7:53 AM 39.0 °F 28.3 °F 21.9 °F 50% 29.72 in 10.0 mi West 24.2 mph 44.9 mph N/A   Mostly Cloudy
8:53 AM 39.0 °F 29.3 °F 23.0 °F 53% 29.72 in 10.0 mi WSW 19.6 mph 26.5 mph N/A   Scattered Clouds
9:53 AM 39.0 °F 28.0 °F 23.0 °F 53% 29.71 in 10.0 mi WSW 25.3 mph 34.5 mph N/A   Partly Cloudy
10:53 AM 39.9 °F 28.6 °F 23.0 °F 51% 29.68 in 10.0 mi WSW 28.8 mph 43.7 mph N/A   Mostly Cloudy
11:53 AM 41.0 °F 29.7 °F 23.0 °F 49% 29.63 in 10.0 mi WSW 31.1 mph 42.6 mph N/A   Mostly Cloudy
12:53 PM 41.0 °F 31.6 °F 23.0 °F 49% 29.64 in 10.0 mi West 20.7 mph 34.5 mph N/A   Clear
1:53 PM 39.9 °F 29.2 °F 23.0 °F 51% 29.62 in 10.0 mi WSW 25.3 mph 34.5 mph N/A   Mostly Cloudy
2:53 PM 39.0 °F 28.5 °F 21.9 °F 50% 29.61 in 10.0 mi WSW 23.0 mph 36.8 mph N/A   Overcast
3:53 PM 37.9 °F 28.5 °F 21.9 °F 53% 29.60 in 10.0 mi SSW 17.3 mph - N/A   Mostly Cloudy
4:53 PM 37.9 °F 26.6 °F 21.0 °F 51% 29.58 in 10.0 mi SSW 25.3 mph 35.7 mph N/A   Scattered Clouds
5:53 PM 37.0 °F 28.9 °F 21.0 °F 52% 29.61 in 10.0 mi SSW 12.7 mph - N/A   Overcast
6:53 PM 36.0 °F 31.1 °F 19.9 °F 52% 29.59 in 10.0 mi WSW 5.8 mph - N/A   Overcast
7:53 PM 36.0 °F 27.1 °F 21.0 °F 55% 29.57 in 10.0 mi SSW 13.8 mph - N/A   Overcast
8:53 PM 35.1 °F 32.2 °F 21.9 °F 59% 29.57 in 10.0 mi Variable 3.5 mph - N/A   Overcast
9:53 PM 35.1 °F - 21.0 °F 57% 29.56 in 10.0 mi Calm Calm - N/A   Overcast
10:53 PM 34.0 °F 25.0 °F 21.0 °F 59% 29.54 in 10.0 mi SW 12.7 mph - N/A   Scattered Clouds
11:53 PM 34.0 °F 25.5 °F 21.9 °F 61% 29.50 in 10.0 mi SSW 11.5 mph - N/A   Overcast